Colorado Springs, CO

1:48 AM MST on January 24, 2018 (GMT -0700)
City Of Colorado Springs Municipal

Weather History for KCOS - December, 2012

Change the Weather History Date:

Friday, December 7, 2012

  Actual Average Record
Temperature  
Mean Temperature 36 °F 30 °F  
Max Temperature 53 °F 42 °F 68 °F (1906)
Min Temperature 19 °F 18 °F -15 °F (2005)
Degree Days  
Heating Degree Days 29 35  
Month to date heating degree days 151 238  
Since 1 July heating degree days 1387 1719  
Cooling Degree Days 0 0  
Month to date cooling degree days 0 0  
Year to date cooling degree days 873 455  
Moisture  
Dew Point 16 °F    
Average Humidity 49    
Maximum Humidity 75    
Minimum Humidity 22    
Precipitation  
Precipitation 0.00 in 0.01 in 0.35 in (1988)
Month to date precipitation T 0.08  
Year to date precipitation 7.85 16.28  
Snow  
Snow 0.00 in 0.20 in 4.70 in (1988)
Month to date snowfall 0.0 1.3  
Since 1 July snowfall 0.9 9.1  
Snow Depth 0.00 in    
Sea Level Pressure  
Sea Level Pressure 29.92 in    
Wind  
Wind Speed 7 mph (ESE)    
Max Wind Speed 22 mph    
Max Gust Speed 23 mph    
Visibility 10 miles    
Events      
T = Trace of Precipitation, MM = Missing Value Source: NWS Daily Summary

Daily Weather History Graph

Daily Weather History Graph

Search for Another Location

Airport or City:

Trip Planner

Search our weather history database for the weather conditions in past years. The results will help you decide how hot, cold, wet, or windy it might be!

Date:

Astronomy

Dec. 07, 2012 Rise Set
Actual Time 7:04 AM MST 4:36 PM MST
Civil Twilight 6:34 AM MST 5:06 PM MST
Nautical Twilight 6:01 AM MST 5:39 PM MST
Astronomical Twilight 5:28 AM MST 6:12 PM MST
Moon 12:29 AM MST (12/7) 12:32 PM MST (12/7)
Length of Visible Light 10h 32m
Length of Day
9h 32m
Last Quarter, 38% of the Moon is Illuminated
Dec 7
Last Quarter
Dec 13
New
Dec 19
First Quarter
Dec 28
Full
Jan 4
Last Quarter

Hourly Weather History & Observations

Time (MST) Temp. Windchill Dew Point Humidity Pressure Visibility Wind Dir Wind Speed Gust Speed Precip Events Conditions
12:54 AM 27.0 °F 23.0 °F 16.0 °F 63% 29.92 in 10.0 mi ESE 3.5 mph - N/A   Clear
1:54 AM 19.9 °F 13.4 °F 12.0 °F 71% 29.93 in 10.0 mi NNE 4.6 mph - N/A   Clear
2:54 AM 21.0 °F 16.2 °F 12.0 °F 68% 29.92 in 10.0 mi NE 3.5 mph - N/A   Clear
3:54 AM 21.0 °F 13.4 °F 12.9 °F 71% 29.91 in 10.0 mi North 5.8 mph - N/A   Clear
4:54 AM 21.9 °F 14.5 °F 14.0 °F 72% 29.92 in 10.0 mi Variable 5.8 mph - N/A   Clear
5:54 AM 24.1 °F 18.2 °F 14.0 °F 65% 29.93 in 10.0 mi North 4.6 mph - N/A   Clear
6:54 AM 27.0 °F 23.0 °F 15.1 °F 61% 29.92 in 10.0 mi WNW 3.5 mph - N/A   Partly Cloudy
7:54 AM 36.0 °F 31.1 °F 16.0 °F 44% 29.88 in 10.0 mi NW 5.8 mph - N/A   Partly Cloudy
8:54 AM 41.0 °F 38.0 °F 18.0 °F 40% 29.88 in 10.0 mi West 4.6 mph - N/A   Partly Cloudy
9:54 AM 46.0 °F - 16.0 °F 30% 29.88 in 10.0 mi Calm Calm - N/A   Partly Cloudy
10:54 AM 51.1 °F - 15.1 °F 24% 29.84 in 10.0 mi West 5.8 mph - N/A   Partly Cloudy
11:54 AM 51.1 °F - 14.0 °F 23% 29.84 in 10.0 mi South 5.8 mph - N/A   Scattered Clouds
12:54 PM 52.0 °F - 15.1 °F 23% 29.81 in 10.0 mi ESE 10.4 mph - N/A   Scattered Clouds
1:54 PM 52.0 °F - 14.0 °F 22% 29.84 in 10.0 mi SE 10.4 mph - N/A   Scattered Clouds
2:54 PM 50.0 °F - 14.0 °F 24% 29.85 in 10.0 mi SE 6.9 mph - N/A   Scattered Clouds
3:54 PM 46.9 °F - 14.0 °F 27% 29.89 in 10.0 mi SE 9.2 mph - N/A   Scattered Clouds
4:35 PM 42.8 °F 35.1 °F 19.4 °F 39% 29.87 in 10.0 mi ENE 16.1 mph - N/A   Scattered Clouds
4:54 PM 41.0 °F 33.9 °F 19.9 °F 43% 29.96 in 10.0 mi ENE 12.7 mph - N/A   Scattered Clouds
5:54 PM 36.0 °F 28.5 °F 19.0 °F 50% 30.02 in 10.0 mi East 10.4 mph - N/A   Scattered Clouds
6:54 PM 33.1 °F 24.9 °F 18.0 °F 54% 30.04 in 10.0 mi East 10.4 mph - N/A   Partly Cloudy
7:54 PM 32.0 °F 28.7 °F 18.0 °F 56% 30.03 in 10.0 mi South 3.5 mph - N/A   Scattered Clouds
8:54 PM 28.0 °F 19.3 °F 17.1 °F 63% 30.02 in 10.0 mi SSE 9.2 mph - N/A   Partly Cloudy
9:54 PM 28.0 °F 20.0 °F 17.1 °F 63% 29.99 in 10.0 mi SE 8.1 mph - N/A   Partly Cloudy
10:54 PM 30.0 °F 18.7 °F 18.0 °F 61% 29.95 in 10.0 mi South 16.1 mph - N/A   Scattered Clouds
11:54 PM 28.9 °F 18.2 °F 17.1 °F 61% 29.94 in 10.0 mi SSE 13.8 mph - N/A   Scattered Clouds